Creek Data

    Home     View Charts     View Raw Data     Messages

ID Distance Battery Voltage Battery Current Internal Temp Internal Humidity External Temp Solar Input rssi snr Time Stamp Record
35508 15.4 4.03 0 47 37 48 5.1 -81 7 03/20/2025 09:15 AM 17274
35507 15.3 4.04 0 44 37 46 5 -83 7 03/20/2025 08:45 AM 17272
35506 0.0 4.08 0 42 37 43 4.5 -81 8 03/20/2025 08:30 AM 17271
35505 0.0 3.99 0 40 38 42 4.5 -81 8 03/20/2025 08:00 AM 17269
35504 15.2 3.99 0 39 38 42 4.5 -82 8 03/20/2025 07:45 AM 17268
35503 0.0 4.02 0 38 38 39 4.5 -81 9 03/20/2025 07:30 AM 17267
35502 0.0 3.97 -5 38 39 39 0.9 -80 8 03/20/2025 07:00 AM 17265
35501 0.0 3.97 -5 37 39 38 0 -80 8 03/20/2025 06:45 AM 17264
35500 0.0 3.98 -35 37 39 39 0 -80 7 03/20/2025 06:30 AM 17263
35499 0.0 4.03 -5 37 39 39 0 -80 7 03/20/2025 06:15 AM 17262
35498 0.0 3.97 -5 38 40 38 0 -80 7 03/20/2025 06:00 AM 17261
35497 15.3 3.98 -5 38 40 41 0 -81 8 03/20/2025 05:45 AM 17260
35496 0.0 3.98 -5 39 39 40 0 -80 8 03/20/2025 05:30 AM 17259
35495 0.0 4.03 -5 39 40 42 0 -80 7 03/20/2025 05:15 AM 17258
35494 0.0 4.03 -5 39 40 40 0 -80 8 03/20/2025 05:00 AM 17257
35493 0.0 3.98 -5 40 40 41 0 -79 8 03/20/2025 04:45 AM 17256
35492 0.0 3.98 -5 40 40 42 0 -81 8 03/20/2025 04:30 AM 17255
35491 0.0 3.98 -5 40 40 42 0 -81 8 03/20/2025 04:15 AM 17254
35490 0.0 4.04 -5 40 40 41 0 -81 7 03/20/2025 04:00 AM 17253
35489 0.0 3.98 -5 41 40 43 0 -81 8 03/20/2025 03:45 AM 17252
35488 15.2 3.98 -5 42 40 43 0 -81 8 03/20/2025 03:30 AM 17251
35487 15.2 3.99 -5 42 40 43 0 -81 8 03/20/2025 03:15 AM 17250
35486 0.0 4.04 -5 42 40 44 0 -79 8 03/20/2025 03:00 AM 17249
35485 15.2 3.99 -5 42 40 44 0 -79 8 03/20/2025 02:45 AM 17248
35484 0.0 3.99 -5 43 40 45 0 -79 8 03/20/2025 02:30 AM 17247